User: anonymous   Login
Location: Albany
(35.0000°S, 118.0000°E)
Time: 16:40:01
(UTC-04:00)
Language:

JAS-1B - Orbit

View from above orbital plane
View from above orbital plane
View from above satellite
View from above satellite

Ground track
Ground track

The orbit data is extracted from the following two-line orbital elements,

1 20480U 90013C   16149.54986390 -.00000043  00000-0 -26259-4 0  9999
2 20480  99.0235 349.5385 0540248 182.7211 237.9177 12.83411247232383
Epoch (UTC): 28 May 2016 13:11:48
Eccentricity: 0.0540248
inclination: 99.0235°
perigee height: 911 km
apogee height: 1744 km
right ascension of ascending node: 349.5385°
argument of perigee: 182.7211°
revolutions per day: 12.83411247
mean anomaly at epoch: 237.9177°
orbit number at epoch: 23238

The dashed part of the orbit path shows where the satellite is in the earth's shadow,  

DLR